Location: München
(48.1351°N, 11.5820°E)
Time: 13:22:14
(UTC+02:00)

ISS - Visible Passes

Search period start: 29 May 2020 00:00
Search period end: 08 June 2020 00:00
Orbit: 417 x 420 km, 51.6° (Epoch: 29 May)

Date Brightness Start Highest point End Pass type
(mag) Time Alt. Az. Time Alt. Az. Time Alt. Az.
29 May -3.5 22:23:51 10° WNW 22:27:10 56° SSW 22:29:25 18° SE visible
30 May -1.8 23:13:30 10° W 23:15:45 17° SW 23:16:13 16° SSW visible
31 May -2.3 22:25:15 10° W 22:28:06 25° SW 22:30:08 15° S visible
02 Jun -1.2 22:27:49 10° WSW 22:28:48 11° SW 22:29:46 10° SSW visible
